This is the latest recevied weather packets stored in our database for station/object W0BJ-1. If no packets are shown the sender has not sent any weather packets the latest 10 day(s).
| Time | Temp. | Humidity | Pressure | Rain* | Wind** | Luminosity | Snow |
|---|---|---|---|---|---|---|---|
| 1777663852 | 15.56° C | 41% | 1018.4 hPa | 0 mm | - | 339 W/m² | - |
| 1777662951 | 16.11° C | 37% | 1018.4 hPa | 0 mm | - | 316 W/m² | - |
| 1777662640 | 16.67° C | 37% | 1018.4 hPa | 0 mm | - | 360 W/m² | - |
| 1777661444 | 16.11° C | 39% | 1018.4 hPa | 0 mm | - | 1111 W/m² | - |
| 1777660841 | 15.56° C | 40% | 1018.5 hPa | 0 mm | - | 346 W/m² | - |
| 1777660541 | 15.56° C | 43% | 1018.6 hPa | 0 mm | - | 1127 W/m² | - |
| 1777660251 | 15° C | 43% | 1018.6 hPa | 0 mm | - | 1097 W/m² | - |
| 1777659043 | 15° C | 45% | 1018.6 hPa | 0 mm | - | 1078 W/m² | - |
| 1777658452 | 15° C | 41% | 1018.6 hPa | 0 mm | - | 294 W/m² | - |
| 1777657547 | 15° C | 44% | 1018.8 hPa | 0 mm | - | 1058 W/m² | - |
| 1777653963 | 14.44° C | 42% | 1019.2 hPa | 0 mm | - | 930 W/m² | - |
| 1777653340 | 13.89° C | 45% | 1019.1 hPa | 0 mm | - | 860 W/m² | - |
| 1777651540 | 13.33° C | 44% | 1019.3 hPa | 0 mm | - | 807 W/m² | - |
| 1777649141 | 12.22° C | 52% | 1019.4 hPa | 0 mm | - | 722 W/m² | - |
| 1777647940 | 11.67° C | 52% | 1019.3 hPa | 0 mm | - | 675 W/m² | - |
| 1777645541 | 11.11° C | 52% | 1019.2 hPa | 0 mm | - | 564 W/m² | - |
| 1777644952 | 11.11° C | 55% | 1019.2 hPa | 0 mm | - | 534 W/m² | - |
| 1777644046 | 10.56° C | 56% | 1019 hPa | 0 mm | - | 485 W/m² | - |
| 1777643742 | 10.56° C | 58% | 1018.9 hPa | 0 mm | - | 469 W/m² | - |
| 1777641355 | 8.33° C | 68% | 1019.1 hPa | 0 mm | - | 236 W/m² | - |
| 1777638942 | 5° C | 83% | 1018.8 hPa | 0 mm | - | 90 W/m² | - |
| 1777638654 | 5° C | 83% | 1018.7 hPa | 0 mm | - | 63 W/m² | - |
| 1777634738 | 3.89° C | 80% | 1018.2 hPa | 0 mm | - | 14 W/m² | - |
| 1777634437 | 3.89° C | 80% | 1018.2 hPa | 0 mm | - | 12 W/m² | - |
| 1777633253 | 3.89° C | 79% | 1018.1 hPa | 0 mm | - | 0 W/m² | - |
* Rain latest hour (hover to see other rain measurements)
** Current wind speed in m/s (hover to see current wind gust speed)